Flag for Germany Weather past 2 weeks in Regensburg, Bavaria, Germany

Now
26 °F

Low clouds.


Feels Like: 20 °F
Forecast: 13 / 30 °F
Wind: 5 mph from Southeast

Location: Regensburg

Current Time: Dec 27, 2014 at 10:32:01 AM

Latest Report: Dec 27, 2014 at 10:00 AM


Visibility: 6 mi

Pressure: 29.83 "Hg

Humidity: 88%

Dew point: 23 °F

Location of RegensburgLocation

Historic Weather in Regensburg — Graph

°F

Regensburg temperature yesterday

Maximum temperature yesterday: 36 °F (at 1:00 PM)
Minimum temperature yesterday: 26 °F (at 11:00 PM)
Average temperature yesterday: 32 °F

Past Weeks' High & Low Weather Summary

 TemperatureHumidityPressure
High53 °F (Dec 23, 2:00 PM)100% (Dec 16, 2:00 AM)30.48 "Hg (Dec 16, 2:00 AM)
Low24 °F (Dec 27, 1:00 AM)61% (Dec 12, 4:00 PM)29.78 "Hg (Dec 12, 8:00 PM)
Average40 °F86%30.10 "Hg
* Reported Dec 12 9:00 AM — Dec 27 9:00 AM, Regensburg, Weather by CustomWeather, © 2014

Note: Actual official high and low records may vary slightly from our data, if they occured in-between our weather recording intervals... More about our weather records

Advertising

Regensburg weather history for previous 24 hours

 ConditionsComfort  
Time TempWeatherWind HumidityBarometerVisibility
9:00 AM
Dec 27
26 °FLow clouds.5 mph92%29.88 "Hg5 mi
8:00 AM26 °FLow clouds.6 mph93%29.93 "Hg4 mi
7:00 AM27 °FFog.5 mph95%29.98 "Hg3 mi
6:00 AM27 °FFog.5 mph96%30.04 "Hg2 mi
5:00 AM28 °FLow clouds.5 mph98%30.10 "Hg1 mi
4:00 AM27 °FLow clouds.2 mph99%30.16 "Hg0 mi
3:00 AM27 °FLow clouds.1 mph98%30.21 "Hg0 mi
2:00 AM26 °FLow clouds.1 mph97%30.23 "Hg3 mi
1:00 AM24 °FClear.1 mph96%30.27 "Hg0 mi
12:00 AM26 °FOvercast.1 mph96%30.30 "Hg3 mi
11:00 PM
Dec 26
26 °FClear.1 mph98%30.32 "Hg6 mi
10:00 PM28 °FClear.1 mph96%30.33 "Hg9 mi
9:00 PM29 °FClear.2 mph93%30.34 "Hg11 mi
8:00 PM31 °FPassing clouds.2 mph92%30.34 "Hg11 mi
7:00 PM31 °FLight snow. Passing clouds.3 mph94%30.34 "Hg6 mi
6:00 PM32 °FOvercast.1 mph93%30.36 "Hg13 mi
5:00 PM32 °FLight snow. Overcast.2 mph96%30.36 "Hg3 mi
4:00 PM31 °FLight snow. Overcast.2 mph94%30.36 "Hg4 mi
3:00 PM35 °FOvercast.2 mph81%30.36 "Hg16 mi
2:00 PM36 °FOvercast.5 mph72%30.35 "Hg19 mi
1:00 PM36 °FOvercast.6 mph74%30.36 "Hg16 mi
12:00 PM36 °FOvercast.5 mph78%30.37 "Hg18 mi
11:00 AM36 °FOvercast.2 mph84%30.38 "Hg12 mi
10:00 AM34 °FOvercast.2 mph85%30.38 "Hg11 mi
Weather by CustomWeather, © 2014

See weather overviewHow to use our weather pages